Theta_e
312 311 312 313 313 313 312 313 312 312 313 314 313 311 313 312 311 312 313 311 312 313 313 314 314 315 316 317 319 320 320 323 331 345 350 351 351 350 348 348 346 346 347 346
312 313 314 315 315 316 316 314 314 313 315 315 313 313 313 313 312 313 316 316 315 317 317 316 316 317 315 317 318 320 320 322 327 339 337 347 346 349 348 347 349 346 346 346
315 315 315 317 316 317 316 315 314 315 314 314 313 314 314 313 317 318 318 317 317 317 317 317 316 316 316 316 318 319 321 322 323 324 334 341 345 347 347 347 347 349 348 346
315 315 317 316 316 315 314 314 315 314 313 313 313 316 312 313 316 319 318 316 317 317 318 319 319 318 317 316 318 320 320 322 323 323 335 339 341 345 343 343 346 346 349 347
317 317 316 315 316 315 316 314 313 313 314 314 313 312 313 316 319 319 319 318 317 317 318 320 320 319 322 323 320 319 321 322 324 325 330 334 338 332 325 342 346 346 347 347
316 316 316 316 316 314 314 313 312 313 312 313 317 318 317 319 320 321 321 320 319 317 317 319 320 319 320 322 323 321 326 325 326 326 328 335 336 330 340 346 347 346 346 347
317 317 316 316 315 312 312 311 311 315 313 315 315 317 315 320 320 319 320 319 317 317 316 316 318 319 319 321 321 323 326 330 330 329 329 331 339 331 340 345 347 347 346 346
319 319 318 316 315 315 313 312 311 320 319 320 317 319 319 318 318 319 320 319 316 318 314 315 315 317 317 319 319 321 322 326 329 331 329 330 335 336 342 344 346 346 346 345
317 320 317 317 315 313 314 311 314 312 315 318 317 317 319 318 319 319 318 317 313 313 313 314 314 315 316 316 317 318 323 324 329 329 331 327 330 336 337 340 345 345 347 345
318 318 317 317 314 314 313 313 318 314 317 320 317 315 316 319 317 318 316 312 311 311 311 311 312 313 313 313 314 317 322 323 326 336 332 336 335 336 339 340 342 343 346 344
316 313 317 315 315 315 314 314 317 319 318 322 320 315 313 314 313 315 313 311 309 309 309 310 310 311 312 313 313 316 319 323 324 324 334 336 337 336 335 335 338 339 343 344
317 313 316 317 315 314 313 314 316 310 319 315 317 317 312 312 314 313 312 311 308 307 307 307 307 308 310 312 313 314 316 322 324 325 323 324 332 332 334 333 337 341 340 341
314 310 310 317 312 311 315 315 315 315 313 314 322 320 314 314 314 312 310 308 307 308 307 307 307 307 308 311 312 312 314 318 323 324 327 325 322 325 326 333 335 341 340 340
317 312 314 319 316 314 317 317 316 315 319 320 321 320 318 315 313 311 310 308 307 307 307 306 306 307 308 310 309 310 311 314 319 323 323 326 325 324 321 333 334 336 339 338
314 315 315 316 317 317 318 318 318 318 318 322 321 318 316 313 311 310 310 309 309 307 306 306 306 306 307 308 308 309 310 311 314 319 321 322 325 325 329 332 333 335 334 335
311 314 317 319 318 319 319 319 320 320 319 318 318 317 313 311 310 310 310 308 306 306 306 306 306 306 307 307 306 307 308 309 311 314 319 322 322 329 326 333 331 332 332 331
312 314 315 318 318 320 322 319 318 318 318 318 315 315 310 311 310 310 307 305 306 305 306 306 306 306 306 306 306 306 307 310 312 312 317 321 323 329 331 330 327 326 324 324
312 314 318 322 323 324 315 317 317 317 317 316 315 312 310 310 308 306 305 305 305 304 304 304 304 304 304 305 305 305 306 307 310 311 315 323 325 326 325 325 323 322 322 320
312 317 321 322 317 317 316 319 311 314 316 312 312 311 309 307 306 305 305 304 304 303 302 302 302 302 303 303 304 304 306 307 309 311 314 324 326 324 323 321 323 321 319 316
310 313 314 313 314 317 314 317 316 314 318 311 310 309 307 306 306 306 305 303 301 301 301 301 302 303 304 303 303 303 305 307 309 310 312 323 325 324 322 321 321 319 314 312
310 309 312 312 315 313 314 314 315 316 317 310 309 307 305 305 304 304 302 301 301 301 301 302 304 307 309 308 304 303 304 307 308 309 311 325 326 323 321 318 316 312 311 309
309 306 314 312 315 312 312 313 317 312 309 308 305 304 304 303 303 301 301 301 301 301 301 304 307 309 308 308 304 303 304 308 308 309 320 324 322 319 317 314 312 310 309 307
308 310 311 313 311 310 312 315 312 309 305 303 302 302 302 302 301 300 300 301 301 301 302 306 310 306 306 305 304 304 306 309 310 311 321 319 318 315 313 311 310 309 308 306
307 307 311 311 311 313 313 311 308 306 304 304 301 301 301 300 300 300 300 300 300 300 304 307 308 305 305 304 304 305 307 309 311 317 318 317 314 312 311 310 309 308 307 306
309 307 310 313 312 312 312 309 304 303 301 302 302 301 300 300 300 299 300 299 300 301 306 309 309 305 305 304 304 305 307 309 313 319 316 314 311 310 308 307 307 307 306 306
306 308 313 314 312 311 307 304 302 301 302 302 301 299 299 299 299 298 298 298 300 304 306 308 309 306 305 305 306 306 307 311 317 316 314 312 309 307 304 303 302 305 305 305
Wind_Speed
5 6 5 7 8 11 7 7 8 7 4 5 3 11 14 6 9 16 17 12 13 15 17 27 29 36 38 34 36 35 30 33 37 33 31 31 34 35 35 23 34 35 39 38
7 4 5 10 9 8 11 8 15 11 3 2 6 19 10 8 7 6 8 9 8 12 14 17 23 30 33 37 36 38 34 33 37 37 34 31 31 34 37 39 31 33 40 43
3 10 11 11 10 12 9 9 10 8 6 2 5 13 12 11 1 5 7 6 7 7 12 12 15 21 31 32 35 39 38 36 39 40 38 31 23 19 26 33 43 32 39 48
5 7 8 10 4 7 3 10 6 12 9 4 5 17 7 8 6 5 8 8 8 10 15 14 15 20 26 24 32 36 40 38 38 43 38 33 27 22 26 33 35 44 35 47
10 4 5 4 2 3 4 11 7 8 3 0 3 6 5 6 6 8 10 9 9 11 13 13 12 17 21 31 19 30 38 41 40 42 40 37 31 30 31 30 34 36 42 35
3 4 3 3 3 2 7 8 6 3 2 3 1 2 5 3 7 8 14 11 10 11 12 12 17 22 25 31 35 14 23 38 40 41 43 38 35 31 30 29 26 29 36 39
3 1 2 5 6 5 10 7 5 6 4 4 2 8 8 5 5 4 7 9 9 9 8 10 13 14 25 24 29 27 15 20 36 40 41 40 37 35 33 30 25 26 29 25
3 5 3 6 3 4 5 4 4 5 3 14 5 5 4 6 8 4 4 6 7 3 5 10 12 16 21 25 30 33 32 30 26 37 41 41 39 34 32 30 26 26 30 32
4 3 7 3 2 3 5 2 4 0 3 3 3 6 6 8 7 5 9 9 9 9 8 8 12 20 21 28 30 27 31 30 20 28 31 40 35 29 28 27 23 22 25 28
3 7 5 0 4 2 2 3 2 3 3 4 4 5 8 6 6 7 8 6 6 9 13 11 9 18 24 29 32 26 18 18 22 20 25 21 23 22 21 21 20 19 21 25
3 3 5 4 3 8 5 3 3 3 3 3 4 5 4 14 5 7 4 6 7 9 10 12 13 20 24 27 28 32 18 8 18 18 14 14 11 12 15 13 16 15 14 16
3 3 4 7 17 10 6 7 3 3 5 5 8 13 12 3 4 4 4 6 7 7 8 12 13 23 24 26 25 28 28 4 3 16 12 3 4 10 10 14 15 13 9 10
3 2 4 10 6 5 1 4 5 4 2 6 6 7 7 13 3 2 6 7 6 8 12 15 17 16 20 24 20 20 28 15 8 4 9 7 10 23 20 21 15 12 13 16
6 5 8 12 14 4 13 17 15 6 6 12 16 18 23 8 6 8 11 7 8 13 18 19 18 15 20 16 18 20 22 21 8 10 4 13 29 43 34 17 16 13 15 20
4 7 6 11 14 12 16 20 24 17 17 14 20 18 17 8 6 9 8 11 20 22 19 15 14 14 17 18 20 21 25 23 21 11 9 8 9 11 25 18 16 13 17 24
2 6 4 9 13 14 20 21 22 21 13 6 7 16 7 2 5 12 16 17 22 21 21 17 15 15 14 20 21 20 21 25 24 21 9 5 6 6 22 20 23 23 24 28
5 4 2 11 6 11 10 14 7 5 4 4 8 14 6 10 14 18 19 20 23 18 17 19 17 16 19 23 21 21 24 24 21 16 10 4 4 5 18 23 28 30 30 30
3 3 3 7 5 5 5 3 3 8 8 11 11 7 12 15 16 19 20 20 19 16 20 20 18 21 24 28 25 22 25 25 22 17 10 8 9 16 21 25 27 29 29 29
6 3 2 4 3 12 7 2 2 5 18 3 3 12 17 17 22 18 11 7 15 20 20 20 28 30 28 27 29 23 21 21 18 17 9 11 13 23 24 29 31 27 27 26
11 2 3 2 3 5 4 5 8 1 10 2 5 11 18 18 16 19 17 19 22 20 25 24 30 29 27 30 29 22 21 18 16 18 9 14 17 24 25 26 32 33 27 29
4 6 4 3 5 7 3 15 4 4 5 9 10 15 18 17 14 22 22 23 21 23 28 32 30 24 26 30 25 22 21 17 21 23 10 18 24 25 27 25 31 30 33 30
4 2 3 4 4 7 16 17 3 5 11 9 11 14 19 21 21 19 20 21 22 23 26 31 22 21 19 24 23 20 18 20 23 22 10 22 30 31 31 31 30 28 34 32
4 2 6 4 6 14 12 11 6 6 7 8 10 17 19 19 20 19 20 20 20 22 22 29 17 11 15 17 21 18 19 21 24 17 17 24 31 31 33 33 29 29 29 31
5 4 4 9 5 6 14 8 4 5 9 13 15 18 17 19 19 20 18 18 17 19 18 26 11 5 5 10 15 18 19 18 22 19 23 26 30 30 29 29 26 27 29 28
8 6 6 8 13 15 6 5 7 9 8 14 17 14 17 18 20 19 17 18 16 19 22 21 10 7 9 11 14 20 21 11 21 24 27 26 29 31 29 24 22 22 22 29
4 5 4 5 17 6 9 5 8 10 13 17 16 19 18 17 18 17 16 15 15 15 22 17 12 10 10 12 15 22 20 15 24 26 26 27 29 30 31 33 32 22 24 25
Wind_Direction
331 39 311 258 236 250 259 276 273 272 217 331 268 274 301 314 298 293 294 300 299 305 299 293 274 268 265 252 245 232 218 213 210 208 208 210 215 219 225 222 229 231 228 219
12 293 260 302 311 318 326 310 299 295 246 286 308 289 303 310 268 274 294 309 327 310 309 295 293 288 265 252 244 234 220 213 210 212 211 209 216 226 228 231 234 232 231 226
187 254 287 305 300 309 294 330 308 276 310 183 300 294 315 303 303 296 315 297 281 324 303 319 304 305 277 244 240 231 217 211 211 215 212 213 210 210 222 230 229 237 229 230
228 252 306 306 326 356 294 329 316 320 340 301 90 292 322 284 304 298 321 327 314 340 12 3 5 342 336 280 255 233 220 217 215 213 209 207 207 206 224 233 242 235 227 226
253 320 291 65 326 358 261 313 285 279 283 11 223 267 321 344 322 314 319 328 325 350 12 356 1 334 347 9 335 256 230 224 219 214 211 209 210 223 238 233 235 235 230 228
255 258 59 128 279 17 301 342 326 346 56 37 243 93 270 299 281 315 328 331 336 358 356 348 354 2 0 3 20 333 244 222 217 213 212 211 210 222 229 232 230 228 231 227
339 174 90 45 355 29 21 28 328 349 359 232 1 315 264 283 324 302 321 314 341 10 335 333 3 358 355 359 3 9 341 267 214 213 213 216 219 222 226 229 229 229 230 214
354 330 49 346 102 293 314 139 167 287 276 292 276 240 250 264 286 265 292 281 28 37 347 359 351 348 352 346 353 352 344 339 254 213 214 216 224 221 227 235 238 241 237 231
349 267 327 306 100 114 296 3 245 55 258 313 246 289 302 271 309 343 321 21 6 6 4 358 348 346 345 342 334 337 336 336 272 242 227 218 225 223 231 239 243 252 248 234
242 292 250 257 11 348 69 197 201 11 304 273 270 258 256 266 275 327 341 360 333 351 352 345 339 332 335 331 324 333 318 340 343 259 238 235 231 235 241 245 257 247 239 227
113 137 272 23 290 291 324 332 47 150 201 273 292 258 263 270 276 265 271 0 354 349 345 341 334 327 322 320 319 318 315 327 330 327 224 206 244 252 263 255 259 251 233 219
271 193 281 255 275 262 201 207 153 137 279 245 267 281 277 187 213 135 340 320 318 322 322 325 317 313 309 305 310 313 310 318 346 321 294 206 221 287 270 252 251 233 217 205
223 277 335 311 343 6 117 250 231 215 219 223 272 274 270 319 322 306 285 284 300 303 304 295 295 291 290 286 300 323 328 286 174 230 327 225 114 255 268 254 236 205 197 182
173 198 189 255 261 261 289 284 277 227 263 279 265 277 279 264 285 302 291 288 281 294 302 303 299 285 279 274 303 311 317 329 292 150 157 205 191 218 221 208 209 198 184 169
155 243 222 243 262 264 268 279 284 274 266 266 281 272 282 287 219 255 291 308 316 311 307 305 300 297 299 294 291 294 302 315 328 284 161 163 207 253 225 188 183 163 162 157
213 257 244 269 270 269 277 275 275 276 275 245 266 279 301 325 308 312 316 312 302 303 303 303 302 296 294 294 291 307 300 298 309 332 260 142 292 324 178 165 157 145 152 159
208 214 195 271 268 285 275 251 248 261 261 242 260 281 11 323 313 303 309 307 300 297 292 298 299 293 287 285 285 288 288 302 294 297 313 141 106 124 150 155 141 132 135 136
212 144 184 284 316 235 244 199 238 248 253 261 281 335 311 296 294 300 298 286 284 288 299 295 289 284 279 279 276 276 278 277 295 298 321 149 131 136 139 137 127 137 139 140
163 142 254 281 240 284 279 76 258 264 296 144 319 311 306 309 307 297 282 286 298 295 287 282 280 276 274 267 266 263 266 266 279 279 318 157 143 148 149 139 144 140 147 142
8 159 168 249 248 282 213 286 286 132 285 144 306 308 311 318 307 303 313 306 299 290 285 284 282 274 267 257 252 245 248 250 249 261 296 176 160 161 156 152 150 161 146 138
304 304 269 248 251 272 105 347 306 338 301 306 313 305 302 299 282 297 302 302 296 293 295 293 283 271 267 249 234 228 236 236 231 243 274 170 156 153 145 138 138 136 132 127
293 298 319 312 260 285 357 353 326 259 291 286 284 294 300 294 296 297 296 296 298 302 302 297 290 281 267 238 210 213 223 227 223 228 194 144 146 144 140 136 133 134 130 123
301 166 286 242 251 292 316 294 259 289 266 282 288 303 298 297 297 300 299 300 302 298 299 303 299 283 298 210 198 194 210 213 209 193 155 139 137 139 140 135 135 131 129 128
266 251 250 310 269 276 310 330 251 269 277 297 302 300 302 299 301 301 299 301 302 299 300 301 262 263 242 196 195 195 199 205 193 157 145 140 131 131 131 133 136 136 136 135
274 311 266 261 279 311 280 287 300 297 281 304 311 305 300 302 302 300 300 301 298 296 302 306 269 216 218 197 194 193 202 203 171 143 140 134 128 125 117 114 124 131 140 147
192 229 285 291 300 272 281 279 295 299 316 320 315 311 305 302 301 304 301 298 297 306 313 310 318 200 200 197 184 194 200 201 149 138 136 130 125 119 115 110 99 117 134 139